Year,Month,Day,Hour,Minute,Value (Times are PST for windspeed in km/hr)
2017,05,16,00,00,11.70
2017,05,16,00,01,11.20
2017,05,16,00,02,16.00
2017,05,16,00,03,18.10
2017,05,16,00,04,24.90
2017,05,16,00,05,19.60
2017,05,16,00,06,16.90
2017,05,16,00,07,10.30
2017,05,16,00,08,8.00
2017,05,16,00,09,16.00
2017,05,16,00,10,23.90
2017,05,16,00,11,20.60
2017,05,16,00,12,19.10
2017,05,16,00,13,16.90
2017,05,16,00,14,10.40
2017,05,16,00,15,14.00
2017,05,16,00,16,25.70
2017,05,16,00,17,24.20
2017,05,16,00,18,23.80
2017,05,16,00,19,21.40
2017,05,16,00,20,26.00
2017,05,16,00,21,21.70
2017,05,16,00,22,21.70
2017,05,16,00,23,17.20
2017,05,16,00,24,18.80
2017,05,16,00,25,16.60
2017,05,16,00,26,19.50
2017,05,16,00,27,26.60
2017,05,16,00,28,18.80
2017,05,16,00,29,13.60
2017,05,16,00,30,17.50
2017,05,16,00,31,20.30
2017,05,16,00,32,21.40
2017,05,16,00,33,15.00
2017,05,16,00,34,16.00
2017,05,16,00,35,13.50
2017,05,16,00,36,16.20
2017,05,16,00,37,13.40
2017,05,16,00,38,10.40
2017,05,16,00,39,17.70
2017,05,16,00,40,12.20
2017,05,16,00,41,14.10
2017,05,16,00,42,16.00
2017,05,16,00,43,18.10
2017,05,16,00,44,12.80
2017,05,16,00,45,13.90
2017,05,16,00,46,15.40
2017,05,16,00,47,14.10
2017,05,16,00,48,13.80
2017,05,16,00,49,18.40
2017,05,16,00,50,14.40
2017,05,16,00,51,12.40
2017,05,16,00,52,12.50
2017,05,16,00,53,19.10
2017,05,16,00,54,16.70
2017,05,16,00,55,8.80
2017,05,16,00,56,1.40
2017,05,16,00,57,4.00
2017,05,16,00,58,6.00
2017,05,16,00,59,9.20
2017,05,16,01,00,10.40
2017,05,16,01,01,9.80
2017,05,16,01,02,7.20
2017,05,16,01,03,9.40
2017,05,16,01,04,8.90
2017,05,16,01,05,10.40
2017,05,16,01,06,12.90
2017,05,16,01,07,10.00
2017,05,16,01,08,9.70
2017,05,16,01,09,9.10
2017,05,16,01,10,5.90
2017,05,16,01,11,5.90
2017,05,16,01,12,9.10
2017,05,16,01,13,7.20
2017,05,16,01,14,5.70
2017,05,16,01,15,4.90
2017,05,16,01,16,1.80
2017,05,16,01,17,0.10
2017,05,16,01,18,0.40
2017,05,16,01,19,0.00
2017,05,16,01,20,0.00
2017,05,16,01,21,0.00
2017,05,16,01,22,0.00
2017,05,16,01,23,0.00
2017,05,16,01,24,0.00
2017,05,16,01,25,0.00
2017,05,16,01,26,0.00
2017,05,16,01,27,0.00
2017,05,16,01,28,0.00
2017,05,16,01,29,0.00
2017,05,16,01,30,0.00
2017,05,16,01,31,0.00
2017,05,16,01,32,0.00
2017,05,16,01,33,0.00
2017,05,16,01,34,0.00
2017,05,16,01,35,0.00
2017,05,16,01,36,0.00
2017,05,16,01,37,0.00
2017,05,16,01,38,0.00
2017,05,16,01,39,0.00
2017,05,16,01,40,0.00
2017,05,16,01,41,0.00
2017,05,16,01,42,0.00
2017,05,16,01,43,0.00
2017,05,16,01,44,0.00
2017,05,16,01,45,0.00
2017,05,16,01,46,0.00
2017,05,16,01,47,0.00
2017,05,16,01,48,0.00
2017,05,16,01,49,0.00
2017,05,16,01,50,1.70
2017,05,16,01,51,2.00
2017,05,16,01,52,1.80
2017,05,16,01,53,1.30
2017,05,16,01,54,1.90
2017,05,16,01,55,3.10
2017,05,16,01,56,1.20
2017,05,16,01,57,3.20
2017,05,16,01,58,3.00
2017,05,16,01,59,3.50
2017,05,16,02,00,4.00
2017,05,16,02,01,4.80
2017,05,16,02,02,8.60
2017,05,16,02,03,3.80
2017,05,16,02,04,7.70
2017,05,16,02,05,6.70
2017,05,16,02,06,6.60
2017,05,16,02,07,6.20
2017,05,16,02,08,7.50
2017,05,16,02,09,4.30
2017,05,16,02,10,3.10
2017,05,16,02,11,7.90
2017,05,16,02,12,4.00
2017,05,16,02,13,1.70
2017,05,16,02,14,3.00
2017,05,16,02,15,2.80
2017,05,16,02,16,2.20
2017,05,16,02,17,2.50
2017,05,16,02,18,3.00
2017,05,16,02,19,3.20
2017,05,16,02,20,2.20
2017,05,16,02,21,3.50
2017,05,16,02,22,2.50
2017,05,16,02,23,2.30
2017,05,16,02,24,2.40
2017,05,16,02,25,0.40
2017,05,16,02,26,1.10
2017,05,16,02,27,1.60
2017,05,16,02,28,3.40
2017,05,16,02,29,5.40
2017,05,16,02,30,2.60
2017,05,16,02,31,4.60
2017,05,16,02,32,1.80
2017,05,16,02,33,1.80
2017,05,16,02,34,2.50
2017,05,16,02,35,4.00
2017,05,16,02,36,4.10
2017,05,16,02,37,3.50
2017,05,16,02,38,3.30
2017,05,16,02,39,1.40
2017,05,16,02,40,4.50
2017,05,16,02,41,4.10
2017,05,16,02,42,5.40
2017,05,16,02,43,4.80
2017,05,16,02,44,4.40
2017,05,16,02,45,3.40
2017,05,16,02,46,2.70
2017,05,16,02,47,3.50
2017,05,16,02,48,3.90
2017,05,16,02,49,5.00
2017,05,16,02,50,3.70
2017,05,16,02,51,3.30
2017,05,16,02,52,5.10
2017,05,16,02,53,2.90
2017,05,16,02,54,6.30
2017,05,16,02,55,10.40
2017,05,16,02,56,7.30
2017,05,16,02,57,4.90
2017,05,16,02,58,8.10
2017,05,16,02,59,7.10
2017,05,16,03,00,7.60
2017,05,16,03,01,7.60
2017,05,16,03,02,8.90
2017,05,16,03,03,7.80
2017,05,16,03,04,7.70
2017,05,16,03,05,6.00
2017,05,16,03,06,7.00
2017,05,16,03,07,6.60
2017,05,16,03,08,7.90
2017,05,16,03,09,5.10
2017,05,16,03,10,6.50
2017,05,16,03,11,8.20
2017,05,16,03,12,10.00
2017,05,16,03,13,10.10
2017,05,16,03,14,9.50
2017,05,16,03,15,8.60
2017,05,16,03,16,17.50
2017,05,16,03,17,15.10
2017,05,16,03,18,13.60
2017,05,16,03,19,12.30
2017,05,16,03,20,19.10
2017,05,16,03,21,15.50
2017,05,16,03,22,15.10
2017,05,16,03,23,12.00
2017,05,16,03,24,15.70
2017,05,16,03,25,16.80
2017,05,16,03,26,16.20
2017,05,16,03,27,16.50
2017,05,16,03,28,12.60
2017,05,16,03,29,14.60
2017,05,16,03,30,10.90
2017,05,16,03,31,13.10
2017,05,16,03,32,11.90
2017,05,16,03,33,12.70
2017,05,16,03,34,14.10
2017,05,16,03,35,12.30
2017,05,16,03,36,11.10
2017,05,16,03,37,15.30
2017,05,16,03,38,12.20
2017,05,16,03,39,17.00
2017,05,16,03,40,14.70
2017,05,16,03,41,11.70
2017,05,16,03,42,12.80
2017,05,16,03,43,10.10
2017,05,16,03,44,10.10
2017,05,16,03,45,10.50
2017,05,16,03,46,12.50
2017,05,16,03,47,14.90
2017,05,16,03,48,13.60
2017,05,16,03,49,14.20
2017,05,16,03,50,9.50
2017,05,16,03,51,10.30
2017,05,16,03,52,11.20
2017,05,16,03,53,11.30
2017,05,16,03,54,12.90
2017,05,16,03,55,11.30
2017,05,16,03,56,11.50
2017,05,16,03,57,7.20
2017,05,16,03,58,6.10
2017,05,16,03,59,9.70
2017,05,16,04,00,10.60
2017,05,16,04,01,7.20
2017,05,16,04,02,9.70
2017,05,16,04,03,7.20
2017,05,16,04,04,10.00
2017,05,16,04,05,11.80
2017,05,16,04,06,8.80
2017,05,16,04,07,11.10
2017,05,16,04,08,8.30
2017,05,16,04,09,8.20
2017,05,16,04,10,6.10
2017,05,16,04,11,6.50
2017,05,16,04,12,6.20
2017,05,16,04,13,5.30
2017,05,16,04,14,7.60
2017,05,16,04,15,8.00
2017,05,16,04,16,9.10
2017,05,16,04,17,9.80
2017,05,16,04,18,9.10
2017,05,16,04,19,12.30
2017,05,16,04,20,10.50
2017,05,16,04,21,11.00
2017,05,16,04,22,8.00
2017,05,16,04,23,8.90
2017,05,16,04,24,8.60
2017,05,16,04,25,9.70
2017,05,16,04,26,10.30
2017,05,16,04,27,8.60
2017,05,16,04,28,5.70
2017,05,16,04,29,9.80
2017,05,16,04,30,4.90
2017,05,16,04,31,7.80
2017,05,16,04,32,5.60
2017,05,16,04,33,9.10
2017,05,16,04,34,8.50
2017,05,16,04,35,7.70
2017,05,16,04,36,7.90
2017,05,16,04,37,6.50
2017,05,16,04,38,8.30
2017,05,16,04,39,10.00
2017,05,16,04,40,6.20
2017,05,16,04,41,7.30
2017,05,16,04,42,4.90
2017,05,16,04,43,8.50
2017,05,16,04,44,5.20
2017,05,16,04,45,8.40
2017,05,16,04,46,6.70
2017,05,16,04,47,8.00
2017,05,16,04,48,7.90
2017,05,16,04,49,6.10
2017,05,16,04,50,8.20
2017,05,16,04,51,5.40
2017,05,16,04,52,4.20
2017,05,16,04,53,7.90
2017,05,16,04,54,5.50
2017,05,16,04,55,5.50
2017,05,16,04,56,6.40
2017,05,16,04,57,10.30
2017,05,16,04,58,11.20
2017,05,16,04,59,6.70
2017,05,16,05,00,9.40
2017,05,16,05,01,7.00
2017,05,16,05,02,9.70
2017,05,16,05,03,9.10
2017,05,16,05,04,9.80
2017,05,16,05,05,9.50
2017,05,16,05,06,7.70
2017,05,16,05,07,9.80
2017,05,16,05,08,11.30
2017,05,16,05,09,10.30
2017,05,16,05,10,7.80
2017,05,16,05,11,10.90
2017,05,16,05,12,10.60
2017,05,16,05,13,9.40
2017,05,16,05,14,6.70
2017,05,16,05,15,9.70
2017,05,16,05,16,7.50
2017,05,16,05,17,10.40
2017,05,16,05,18,11.30
2017,05,16,05,19,11.40
2017,05,16,05,20,7.70
2017,05,16,05,21,8.80
2017,05,16,05,22,7.80
2017,05,16,05,23,11.90
2017,05,16,05,24,12.60
2017,05,16,05,25,7.70
2017,05,16,05,26,5.30
2017,05,16,05,27,7.60
2017,05,16,05,28,7.40
2017,05,16,05,29,7.90
2017,05,16,05,30,9.30
2017,05,16,05,31,7.40
2017,05,16,05,32,7.90
2017,05,16,05,33,7.50
2017,05,16,05,34,7.20
2017,05,16,05,35,6.90
2017,05,16,05,36,6.40
2017,05,16,05,37,5.80
2017,05,16,05,38,9.10
2017,05,16,05,39,6.60
2017,05,16,05,40,5.40
2017,05,16,05,41,5.70
2017,05,16,05,42,7.20
2017,05,16,05,43,7.90
2017,05,16,05,44,6.00
2017,05,16,05,45,6.90
2017,05,16,05,46,9.40
2017,05,16,05,47,7.20
2017,05,16,05,48,7.20
2017,05,16,05,49,8.80
2017,05,16,05,50,5.80
2017,05,16,05,51,8.70
2017,05,16,05,52,5.60
2017,05,16,05,53,8.40
2017,05,16,05,54,7.40
2017,05,16,05,55,6.00
2017,05,16,05,56,4.90
2017,05,16,05,57,6.70
2017,05,16,05,58,8.90
2017,05,16,05,59,7.60
2017,05,16,06,00,5.10
2017,05,16,06,01,6.20
2017,05,16,06,02,6.20
2017,05,16,06,03,6.00
2017,05,16,06,04,8.20
2017,05,16,06,05,7.60
2017,05,16,06,06,6.50
2017,05,16,06,07,5.60
2017,05,16,06,08,4.80
2017,05,16,06,09,4.60
2017,05,16,06,10,4.10
2017,05,16,06,11,5.40
2017,05,16,06,12,4.80
2017,05,16,06,13,4.50
2017,05,16,06,14,4.30
2017,05,16,06,15,2.80
2017,05,16,06,16,2.60
2017,05,16,06,17,2.70
2017,05,16,06,18,3.30
2017,05,16,06,19,3.80
2017,05,16,06,20,1.20
2017,05,16,06,21,0.90
2017,05,16,06,22,3.90
2017,05,16,06,23,4.30
2017,05,16,06,24,1.80
2017,05,16,06,25,2.30
2017,05,16,06,26,2.40
2017,05,16,06,27,3.50
2017,05,16,06,28,3.70
2017,05,16,06,29,4.70
2017,05,16,06,30,3.60
2017,05,16,06,31,4.50
2017,05,16,06,32,4.30
2017,05,16,06,33,3.10
2017,05,16,06,34,2.80
2017,05,16,06,35,5.10
2017,05,16,06,36,4.70
2017,05,16,06,37,5.60
2017,05,16,06,38,4.30
2017,05,16,06,39,4.10
2017,05,16,06,40,4.80
2017,05,16,06,41,3.40
2017,05,16,06,42,4.50
2017,05,16,06,43,3.20
2017,05,16,06,44,4.40
2017,05,16,06,45,4.30
2017,05,16,06,46,3.70
2017,05,16,06,47,4.20
2017,05,16,06,48,3.00
2017,05,16,06,49,2.00
2017,05,16,06,50,2.40
2017,05,16,06,51,3.50
2017,05,16,06,52,4.00
2017,05,16,06,53,0.80
2017,05,16,06,54,0.50
2017,05,16,06,55,0.20
2017,05,16,06,56,0.70
2017,05,16,06,57,2.40
2017,05,16,06,58,1.70
2017,05,16,06,59,1.70
2017,05,16,07,00,1.60
2017,05,16,07,01,1.40
2017,05,16,07,02,1.50
2017,05,16,07,03,1.30
2017,05,16,07,04,1.70
2017,05,16,07,05,2.20
2017,05,16,07,06,1.00
2017,05,16,07,07,4.00
2017,05,16,07,08,3.40
2017,05,16,07,09,3.90
2017,05,16,07,10,2.40
2017,05,16,07,11,3.20
2017,05,16,07,12,3.50
2017,05,16,07,13,3.60
2017,05,16,07,14,3.10
2017,05,16,07,15,4.30
2017,05,16,07,16,1.70
2017,05,16,07,17,2.90
2017,05,16,07,18,4.30
2017,05,16,07,19,0.80
2017,05,16,07,20,3.50
2017,05,16,07,21,4.20
2017,05,16,07,22,4.30
2017,05,16,07,23,1.60
2017,05,16,07,24,2.10
2017,05,16,07,25,3.80
2017,05,16,07,26,3.90
2017,05,16,07,27,0.90
2017,05,16,07,28,2.10
2017,05,16,07,29,0.60
2017,05,16,07,30,1.40
2017,05,16,07,31,1.40
2017,05,16,07,32,2.50
2017,05,16,07,33,1.50
2017,05,16,07,34,1.00
2017,05,16,07,35,1.00
2017,05,16,07,36,2.40
2017,05,16,07,37,1.60
2017,05,16,07,38,1.60
2017,05,16,07,39,2.40
2017,05,16,07,40,3.60
2017,05,16,07,41,5.70
2017,05,16,07,42,3.70
2017,05,16,07,43,2.10
2017,05,16,07,44,2.10
2017,05,16,07,45,2.40
2017,05,16,07,46,2.00
2017,05,16,07,47,2.70
2017,05,16,07,48,2.30
2017,05,16,07,49,2.30
2017,05,16,07,50,3.60
2017,05,16,07,51,2.70
2017,05,16,07,52,1.30
2017,05,16,07,53,3.60
2017,05,16,07,54,2.00
2017,05,16,07,55,2.10
2017,05,16,07,56,4.40
2017,05,16,07,57,3.10
2017,05,16,07,58,4.40
2017,05,16,07,59,3.30
2017,05,16,08,00,3.60
2017,05,16,08,01,4.50
2017,05,16,08,02,5.10
2017,05,16,08,03,4.80
2017,05,16,08,04,5.50
2017,05,16,08,05,4.20
2017,05,16,08,06,5.10
2017,05,16,08,07,4.50
2017,05,16,08,08,6.10
2017,05,16,08,09,4.80
2017,05,16,08,10,5.50
2017,05,16,08,11,5.40
2017,05,16,08,12,7.00
2017,05,16,08,13,5.50
2017,05,16,08,14,5.60
2017,05,16,08,15,3.20
2017,05,16,08,16,4.60
2017,05,16,08,17,5.50
2017,05,16,08,18,7.30
2017,05,16,08,19,4.80
2017,05,16,08,20,5.70
2017,05,16,08,21,5.90
2017,05,16,08,22,6.60
2017,05,16,08,23,6.80
2017,05,16,08,24,3.70
2017,05,16,08,25,4.80
2017,05,16,08,26,5.30
2017,05,16,08,27,5.10
2017,05,16,08,28,5.90
2017,05,16,08,29,5.40
2017,05,16,08,30,3.80
2017,05,16,08,31,2.60
2017,05,16,08,32,3.70
2017,05,16,08,33,4.50
2017,05,16,08,34,5.20
2017,05,16,08,35,3.90
2017,05,16,08,36,6.00
2017,05,16,08,37,6.50
2017,05,16,08,38,5.00
2017,05,16,08,39,5.70
2017,05,16,08,40,6.00
2017,05,16,08,41,3.70
2017,05,16,08,42,6.30
2017,05,16,08,43,6.10
2017,05,16,08,44,5.20
2017,05,16,08,45,3.40
2017,05,16,08,46,6.00
2017,05,16,08,47,4.50
2017,05,16,08,48,8.90
2017,05,16,08,49,5.10
2017,05,16,08,50,4.40
2017,05,16,08,51,5.20
2017,05,16,08,52,3.70
2017,05,16,08,53,1.40
2017,05,16,08,54,3.20
2017,05,16,08,55,3.50
2017,05,16,08,56,0.50
2017,05,16,08,57,3.10
2017,05,16,08,58,6.30
2017,05,16,08,59,2.90
2017,05,16,09,00,1.90
2017,05,16,09,01,3.30
2017,05,16,09,02,5.40
2017,05,16,09,03,6.50
2017,05,16,09,04,4.80
2017,05,16,09,05,2.30
2017,05,16,09,06,2.40
2017,05,16,09,07,6.40
2017,05,16,09,08,5.30
2017,05,16,09,09,4.50
2017,05,16,09,10,4.50
2017,05,16,09,11,2.00
2017,05,16,09,12,2.00
2017,05,16,09,13,0.00
2017,05,16,09,14,1.30
2017,05,16,09,15,2.10
2017,05,16,09,16,0.10
2017,05,16,09,17,0.00
2017,05,16,09,18,2.30
2017,05,16,09,19,1.60
2017,05,16,09,20,1.00
2017,05,16,09,21,1.00
2017,05,16,09,22,2.70
2017,05,16,09,23,3.10
2017,05,16,09,24,0.40
2017,05,16,09,25,0.00
2017,05,16,09,26,0.80
2017,05,16,09,27,4.30
2017,05,16,09,28,5.20
2017,05,16,09,29,4.20
2017,05,16,09,30,3.20
2017,05,16,09,31,3.40
2017,05,16,09,32,5.80
2017,05,16,09,33,5.50
2017,05,16,09,34,6.00
2017,05,16,09,35,4.30
2017,05,16,09,36,3.50
2017,05,16,09,37,3.90
2017,05,16,09,38,1.70
2017,05,16,09,39,3.00
2017,05,16,09,40,4.40
2017,05,16,09,41,4.80
2017,05,16,09,42,8.20
2017,05,16,09,43,7.30
2017,05,16,09,44,5.50
2017,05,16,09,45,6.00
2017,05,16,09,46,6.50
2017,05,16,09,47,5.80
2017,05,16,09,48,4.50
2017,05,16,09,49,4.20
2017,05,16,09,50,3.40
2017,05,16,09,51,3.40
2017,05,16,09,52,6.10
2017,05,16,09,53,7.00
2017,05,16,09,54,3.80
2017,05,16,09,55,4.40
2017,05,16,09,56,3.00
2017,05,16,09,57,3.80
2017,05,16,09,58,6.70
2017,05,16,09,59,5.50
2017,05,16,10,00,4.90
2017,05,16,10,01,5.10
2017,05,16,10,02,7.40
2017,05,16,10,03,3.50
2017,05,16,10,04,5.80
2017,05,16,10,05,4.20
2017,05,16,10,06,3.90
2017,05,16,10,07,5.20
2017,05,16,10,08,3.20
2017,05,16,10,09,4.30
2017,05,16,10,10,6.00
2017,05,16,10,11,5.80
2017,05,16,10,12,4.30
2017,05,16,10,13,6.00
2017,05,16,10,14,6.80
2017,05,16,10,15,3.40
2017,05,16,10,16,4.90
2017,05,16,10,17,4.10
2017,05,16,10,18,4.60
2017,05,16,10,19,6.30
2017,05,16,10,20,6.10
2017,05,16,10,21,4.90
2017,05,16,10,22,4.80
2017,05,16,10,23,8.40
2017,05,16,10,24,5.30
2017,05,16,10,25,13.10
2017,05,16,10,26,10.00
2017,05,16,10,27,8.60
2017,05,16,10,28,6.30
2017,05,16,10,29,5.40
2017,05,16,10,30,6.80
2017,05,16,10,31,8.90
2017,05,16,10,32,5.50
2017,05,16,10,33,3.00
2017,05,16,10,34,4.90
2017,05,16,10,35,5.40
2017,05,16,10,36,7.60
2017,05,16,10,37,9.00
2017,05,16,10,38,9.20
2017,05,16,10,39,13.20
2017,05,16,10,40,11.60
2017,05,16,10,41,9.90
2017,05,16,10,42,9.40
2017,05,16,10,43,6.70
2017,05,16,10,44,8.40
2017,05,16,10,45,10.90
2017,05,16,10,46,10.60
2017,05,16,10,47,10.30
2017,05,16,10,48,9.80
2017,05,16,10,49,6.90
2017,05,16,10,50,6.70
2017,05,16,10,51,10.60
2017,05,16,10,52,7.50
2017,05,16,10,53,11.00
2017,05,16,10,54,12.80
2017,05,16,10,55,8.90
2017,05,16,10,56,9.10
2017,05,16,10,57,7.50
2017,05,16,10,58,8.70
2017,05,16,10,59,7.00
2017,05,16,11,00,8.60
2017,05,16,11,01,7.20
2017,05,16,11,02,9.20
2017,05,16,11,03,8.60
2017,05,16,11,04,5.30
2017,05,16,11,05,11.50
2017,05,16,11,06,9.50
2017,05,16,11,07,5.80
2017,05,16,11,08,6.90
2017,05,16,11,09,5.60
2017,05,16,11,10,4.90
2017,05,16,11,11,6.10
2017,05,16,11,12,3.70
2017,05,16,11,13,5.50
2017,05,16,11,14,4.60
2017,05,16,11,15,6.90
2017,05,16,11,16,7.70
2017,05,16,11,17,9.60
2017,05,16,11,18,7.20
2017,05,16,11,19,9.70
2017,05,16,11,20,9.70
2017,05,16,11,21,9.20
2017,05,16,11,22,11.10
2017,05,16,11,23,11.80
2017,05,16,11,24,11.00
2017,05,16,11,25,6.70
2017,05,16,11,26,9.80
2017,05,16,11,27,11.50
2017,05,16,11,28,10.50
2017,05,16,11,29,9.70
2017,05,16,11,30,4.00
2017,05,16,11,31,6.60
2017,05,16,11,32,6.60
2017,05,16,11,33,5.40
2017,05,16,11,34,5.90
2017,05,16,11,35,3.40
2017,05,16,11,36,1.70
2017,05,16,11,37,3.80
2017,05,16,11,38,3.60
2017,05,16,11,39,7.10
2017,05,16,11,40,6.60
2017,05,16,11,41,7.00
2017,05,16,11,42,7.70
2017,05,16,11,43,7.20
2017,05,16,11,44,6.20
2017,05,16,11,45,8.20
2017,05,16,11,46,11.10
2017,05,16,11,47,9.00
2017,05,16,11,48,12.50
2017,05,16,11,49,11.70
2017,05,16,11,50,11.90
2017,05,16,11,51,11.90
2017,05,16,11,52,5.70
2017,05,16,11,53,7.80
2017,05,16,11,54,7.80
2017,05,16,11,55,4.50
2017,05,16,11,56,4.80
2017,05,16,11,57,8.40
2017,05,16,11,58,8.10
2017,05,16,11,59,6.80
2017,05,16,12,00,7.50
2017,05,16,12,01,15.50
2017,05,16,12,02,9.60
2017,05,16,12,03,11.90
2017,05,16,12,04,11.50
2017,05,16,12,05,11.20
2017,05,16,12,06,12.50
2017,05,16,12,07,11.70
2017,05,16,12,08,11.00
2017,05,16,12,09,9.20
2017,05,16,12,10,11.80
2017,05,16,12,11,10.80
2017,05,16,12,12,10.50
2017,05,16,12,13,14.50
2017,05,16,12,14,16.10
2017,05,16,12,15,9.40
2017,05,16,12,16,11.80
2017,05,16,12,17,10.60
2017,05,16,12,18,9.60
2017,05,16,12,19,12.30
2017,05,16,12,20,13.10
2017,05,16,12,21,14.10
2017,05,16,12,22,12.90
2017,05,16,12,23,10.90
2017,05,16,12,24,10.70
2017,05,16,12,25,13.40
2017,05,16,12,26,14.20
2017,05,16,12,27,12.60
2017,05,16,12,28,8.50
2017,05,16,12,29,7.90
2017,05,16,12,30,8.60
2017,05,16,12,31,9.70
2017,05,16,12,32,7.20
2017,05,16,12,33,6.80
2017,05,16,12,34,7.20
2017,05,16,12,35,8.50
2017,05,16,12,36,8.50
2017,05,16,12,37,6.90
2017,05,16,12,38,9.10
2017,05,16,12,39,10.40
2017,05,16,12,40,7.50
2017,05,16,12,41,3.20
2017,05,16,12,42,4.20
2017,05,16,12,43,4.50
2017,05,16,12,44,5.50
2017,05,16,12,45,5.20
2017,05,16,12,46,7.70
2017,05,16,12,47,9.50
2017,05,16,12,48,5.80
2017,05,16,12,49,8.90
2017,05,16,12,50,11.40
2017,05,16,12,51,5.60
2017,05,16,12,52,4.70
2017,05,16,12,53,9.20
2017,05,16,12,54,5.70
2017,05,16,12,55,12.70
2017,05,16,12,56,15.30
2017,05,16,12,57,13.40
2017,05,16,12,58,9.70
2017,05,16,12,59,10.70
2017,05,16,13,00,12.80
2017,05,16,13,01,9.40
2017,05,16,13,02,13.40
2017,05,16,13,03,10.60
2017,05,16,13,04,10.10
2017,05,16,13,05,14.10
2017,05,16,13,06,12.50
2017,05,16,13,07,9.50
2017,05,16,13,08,8.50
2017,05,16,13,09,9.70
2017,05,16,13,10,9.20
2017,05,16,13,11,12.20
2017,05,16,13,12,11.20
2017,05,16,13,13,13.80
2017,05,16,13,14,12.80
2017,05,16,13,15,14.50
2017,05,16,13,16,9.40
2017,05,16,13,17,13.50
2017,05,16,13,18,13.10
2017,05,16,13,19,9.10
2017,05,16,13,20,8.80
2017,05,16,13,21,7.30
2017,05,16,13,22,10.90
2017,05,16,13,23,8.10
2017,05,16,13,24,8.50
2017,05,16,13,25,12.10
2017,05,16,13,26,9.80
2017,05,16,13,27,7.00
2017,05,16,13,28,10.90
2017,05,16,13,29,9.90
2017,05,16,13,30,12.10
2017,05,16,13,31,12.10
2017,05,16,13,32,9.70
2017,05,16,13,33,12.40
2017,05,16,13,34,10.30
2017,05,16,13,35,7.20
2017,05,16,13,36,9.40
2017,05,16,13,37,7.90
2017,05,16,13,38,10.50
2017,05,16,13,39,8.50
2017,05,16,13,40,10.20
2017,05,16,13,41,7.60
2017,05,16,13,42,3.30
2017,05,16,13,43,7.10
2017,05,16,13,44,9.00
2017,05,16,13,45,10.90
2017,05,16,13,46,8.00
2017,05,16,13,47,5.60
2017,05,16,13,48,6.40
2017,05,16,13,49,6.10
2017,05,16,13,50,7.90
2017,05,16,13,51,6.10
2017,05,16,13,52,9.90
2017,05,16,13,53,9.70
2017,05,16,13,54,6.30
2017,05,16,13,55,8.20
2017,05,16,13,56,6.10
2017,05,16,13,57,9.40
2017,05,16,13,58,6.60
2017,05,16,13,59,12.10
2017,05,16,14,00,11.00
2017,05,16,14,01,6.40
2017,05,16,14,02,9.50
2017,05,16,14,03,9.80
2017,05,16,14,04,7.60
2017,05,16,14,05,7.30
2017,05,16,14,06,4.30
2017,05,16,14,07,8.20
2017,05,16,14,08,12.20
2017,05,16,14,09,6.80
2017,05,16,14,10,6.40
2017,05,16,14,11,7.40
2017,05,16,14,12,8.20
2017,05,16,14,13,6.90
2017,05,16,14,14,7.00
2017,05,16,14,15,10.00
2017,05,16,14,16,8.50
2017,05,16,14,17,11.40
2017,05,16,14,18,8.30
2017,05,16,14,19,12.80
2017,05,16,14,20,13.60
2017,05,16,14,21,7.80
2017,05,16,14,22,3.20
2017,05,16,14,23,11.10
2017,05,16,14,24,7.30
2017,05,16,14,25,6.80
2017,05,16,14,26,9.30
2017,05,16,14,27,10.10
2017,05,16,14,28,14.80
2017,05,16,14,29,13.50
2017,05,16,14,30,11.00
2017,05,16,14,31,9.20
2017,05,16,14,32,7.00
2017,05,16,14,33,7.00
2017,05,16,14,34,12.30
2017,05,16,14,35,12.50
2017,05,16,14,36,6.60
2017,05,16,14,37,3.90
2017,05,16,14,38,9.70
2017,05,16,14,39,10.00
2017,05,16,14,40,11.30
2017,05,16,14,41,10.10
2017,05,16,14,42,10.20
2017,05,16,14,43,11.00
2017,05,16,14,44,10.10
2017,05,16,14,45,4.60
2017,05,16,14,46,2.00
2017,05,16,14,47,4.70
2017,05,16,14,48,10.20
2017,05,16,14,49,4.10
2017,05,16,14,50,4.40
2017,05,16,14,51,9.90
2017,05,16,14,52,12.10
2017,05,16,14,53,8.80
2017,05,16,14,54,10.80
2017,05,16,14,55,8.70
2017,05,16,14,56,5.40
2017,05,16,14,57,11.60
2017,05,16,14,58,13.20
2017,05,16,14,59,11.50
2017,05,16,15,00,6.30
2017,05,16,15,01,8.60
2017,05,16,15,02,7.00
2017,05,16,15,03,5.60
2017,05,16,15,04,5.80
2017,05,16,15,05,8.80
2017,05,16,15,06,5.70
2017,05,16,15,07,8.20
2017,05,16,15,08,7.60
2017,05,16,15,09,8.20
2017,05,16,15,10,7.50
2017,05,16,15,11,7.80
2017,05,16,15,12,8.50
2017,05,16,15,13,9.20
2017,05,16,15,14,5.30
2017,05,16,15,15,10.00
2017,05,16,15,16,6.00
2017,05,16,15,17,7.50
2017,05,16,15,18,9.00
2017,05,16,15,19,8.70
2017,05,16,15,20,8.80
2017,05,16,15,21,9.70
2017,05,16,15,22,9.50
2017,05,16,15,23,7.20
2017,05,16,15,24,7.30
2017,05,16,15,25,8.80
2017,05,16,15,26,5.10
2017,05,16,15,27,5.40
2017,05,16,15,28,3.90
2017,05,16,15,29,4.10
2017,05,16,15,30,3.50
2017,05,16,15,31,4.00
2017,05,16,15,32,6.30
2017,05,16,15,33,11.20
2017,05,16,15,34,8.30
2017,05,16,15,35,13.90
2017,05,16,15,36,10.30
2017,05,16,15,37,5.80
2017,05,16,15,38,7.90
2017,05,16,15,39,11.00
2017,05,16,15,40,6.00
2017,05,16,15,41,5.10
2017,05,16,15,42,7.90
2017,05,16,15,43,7.40
2017,05,16,15,44,4.90
2017,05,16,15,45,8.30
2017,05,16,15,46,10.00
2017,05,16,15,47,9.30
2017,05,16,15,48,9.50
2017,05,16,15,49,12.30
2017,05,16,15,50,11.40
2017,05,16,15,51,11.20
2017,05,16,15,52,7.00
2017,05,16,15,53,3.70
2017,05,16,15,54,6.70
2017,05,16,15,55,5.40
2017,05,16,15,56,4.30
2017,05,16,15,57,4.50
2017,05,16,15,58,12.80
2017,05,16,15,59,12.20
2017,05,16,16,00,9.90
2017,05,16,16,01,11.00
2017,05,16,16,02,10.00
2017,05,16,16,03,7.20
2017,05,16,16,04,10.50
2017,05,16,16,05,9.80
2017,05,16,16,06,8.30
2017,05,16,16,07,7.80
2017,05,16,16,08,11.30
2017,05,16,16,09,13.00
2017,05,16,16,10,9.80
2017,05,16,16,11,4.50
2017,05,16,16,12,3.70
2017,05,16,16,13,4.50
2017,05,16,16,14,7.70
2017,05,16,16,15,4.80
2017,05,16,16,16,6.00
2017,05,16,16,17,8.80
2017,05,16,16,18,8.80
2017,05,16,16,19,10.20
2017,05,16,16,20,8.40
2017,05,16,16,21,8.50
2017,05,16,16,22,11.30
2017,05,16,16,23,9.70
2017,05,16,16,24,9.10
2017,05,16,16,25,7.60
2017,05,16,16,26,8.00
2017,05,16,16,27,12.40
2017,05,16,16,28,11.40
2017,05,16,16,29,8.00
2017,05,16,16,30,10.10
2017,05,16,16,31,7.80
2017,05,16,16,32,11.70
2017,05,16,16,33,10.90
2017,05,16,16,34,7.60
2017,05,16,16,35,6.20
2017,05,16,16,36,5.50
2017,05,16,16,37,9.30
2017,05,16,16,38,7.20
2017,05,16,16,39,9.10
2017,05,16,16,40,11.80
2017,05,16,16,41,13.50
2017,05,16,16,42,12.60
2017,05,16,16,43,8.90
2017,05,16,16,44,7.10
2017,05,16,16,45,8.20
2017,05,16,16,46,9.10
2017,05,16,16,47,11.00
2017,05,16,16,48,8.30
2017,05,16,16,49,10.20
2017,05,16,16,50,11.90
2017,05,16,16,51,9.90
2017,05,16,16,52,7.40
2017,05,16,16,53,10.10
2017,05,16,16,54,4.90
2017,05,16,16,55,6.40
2017,05,16,16,56,9.40
2017,05,16,16,57,11.10
2017,05,16,16,58,8.50
2017,05,16,16,59,9.30
2017,05,16,17,00,8.30
2017,05,16,17,01,4.00
2017,05,16,17,02,7.40
2017,05,16,17,03,8.40
2017,05,16,17,04,8.80
2017,05,16,17,05,11.40
2017,05,16,17,06,9.50
2017,05,16,17,07,9.00
2017,05,16,17,08,10.80
2017,05,16,17,09,11.10
2017,05,16,17,10,11.10
2017,05,16,17,11,9.40
2017,05,16,17,12,6.80
2017,05,16,17,13,5.70
2017,05,16,17,14,10.00
2017,05,16,17,15,9.30
2017,05,16,17,16,8.00
2017,05,16,17,17,7.30
2017,05,16,17,18,7.80
2017,05,16,17,19,10.00
2017,05,16,17,20,10.10
2017,05,16,17,21,11.00
2017,05,16,17,22,6.30
2017,05,16,17,23,6.50
2017,05,16,17,24,5.50
2017,05,16,17,25,6.60
2017,05,16,17,26,10.10
2017,05,16,17,27,11.60
2017,05,16,17,28,7.30
2017,05,16,17,29,8.70
2017,05,16,17,30,4.00
2017,05,16,17,31,6.10
2017,05,16,17,32,7.80
2017,05,16,17,33,6.40
2017,05,16,17,34,8.50
2017,05,16,17,35,7.20
2017,05,16,17,36,4.30
2017,05,16,17,37,3.60
2017,05,16,17,38,5.10
2017,05,16,17,39,5.50
2017,05,16,17,40,10.90
2017,05,16,17,41,5.50
2017,05,16,17,42,7.20
2017,05,16,17,43,6.70
2017,05,16,17,44,9.50
2017,05,16,17,45,4.50
2017,05,16,17,46,3.30
2017,05,16,17,47,4.80
2017,05,16,17,48,7.70
2017,05,16,17,49,5.90
2017,05,16,17,50,1.90
2017,05,16,17,51,3.50
2017,05,16,17,52,6.20
2017,05,16,17,53,2.70
2017,05,16,17,54,7.40